Weather History for Hatteras, NC

Change the Weather History Date:

Thursday, August 22, 2013

  Actual Average Record
Temperature  
Mean Temperature 84 °F 78 °F  
Max Temperature 88 °F 84 °F 91 °F (2005)
Min Temperature 80 °F 73 °F 62 °F (1998)
Degree Days  
Heating Degree Days 0 0  
Month to date heating degree days 0 0  
Since 1 June heating degree days 0 3  
Since 1 July heating degree days 0 0  
Cooling Degree Days 19 13  
Month to date cooling degree days 345 303  
Year to date cooling degree days 1416 1191  
Since 1 June cooling degree days 1254 1048  
Growing Degree Days 34 (Base 50)    
Moisture  
Dew Point 75 °F    
Average Humidity 74    
Maximum Humidity 85    
Minimum Humidity 63    
Precipitation  
Precipitation T in 0.24 in 3.70 in (1981)
Month to date precipitation 3.03 4.71  
Year to date precipitation 30.46 34.97  
Snow  
Snow 0.00 in - - ()
Month to date snowfall 0.0  
Since 1 July snowfall 0.0  
Snow Depth 0.00 in    
Sea Level Pressure  
Sea Level Pressure 30.08 in    
Wind  
Wind Speed 8 mph (WSW)    
Max Wind Speed 13 mph    
Max Gust Speed 17 mph    
Visibility 10 miles    
Events Rain    
T = Trace of Precipitation, MM = Missing Value Source: NWS Daily Summary

Daily Weather History Graph

Daily Weather History Graph

Search for Another Location

Airport:

Trip Planner

Search our weather history database for the weather conditions in past years. The results will help you decide how hot, cold, wet, or windy it might be!

Date:

Astronomy

Aug. 22, 2013 Rise Set
Actual Time 6:27 AM EDT 7:42 PM EDT
Civil Twilight 6:01 AM EDT 8:08 PM EDT
Nautical Twilight 5:29 AM EDT 8:40 PM EDT
Astronomical Twilight 4:56 AM EDT 9:12 PM EDT
Moon 8:32 PM EDT (8/22) 8:07 AM EDT (8/22)
Length of Visible Light 14h 07m
Length of Day
13h 14m
Waning Gibbous, 97% of the Moon is Illuminated
Aug 22
Waning Gibbous
Aug 28
Last Quarter
Sep 5
New
Sep 12
First Quarter
Sep 19
Full

Hourly Weather History & Observations

Time (EDT) Temp. Heat Index Dew Point Humidity Pressure Visibility Wind Dir Wind Speed Gust Speed Precip Events Conditions
12:51 AM 81.0 °F 86.7 °F 75.0 °F 82% 30.13 in 10.0 mi SSE 3.5 mph - N/A   Clear
1:51 AM 82.0 °F 89.4 °F 75.9 °F 82% 30.12 in 10.0 mi South 4.6 mph - N/A   Clear
2:51 AM 80.1 °F 85.1 °F 75.0 °F 85% 30.13 in 10.0 mi WSW 3.5 mph - N/A   Clear
3:51 AM 81.0 °F 87.3 °F 75.9 °F 85% 30.12 in 10.0 mi WSW 4.6 mph - N/A   Clear
4:51 AM 81.0 °F 87.3 °F 75.9 °F 85% 30.11 in 10.0 mi WSW 6.9 mph - N/A   Partly Cloudy
5:14 AM 80.6 °F 86.2 °F 75.2 °F 84% 30.11 in 10.0 mi West 4.6 mph - N/A   Scattered Clouds
5:51 AM 80.1 °F 84.5 °F 73.9 °F 81% 30.11 in 10.0 mi WNW 4.6 mph - N/A   Clear
6:51 AM 80.1 °F 84.2 °F 73.0 °F 79% 30.12 in 10.0 mi West 5.8 mph - N/A   Clear
7:51 AM 82.0 °F 86.3 °F 71.1 °F 69% 30.12 in 10.0 mi WNW 5.8 mph - N/A   Clear
8:51 AM 84.0 °F 89.6 °F 72.0 °F 67% 30.12 in 10.0 mi West 5.8 mph - N/A   Clear
9:51 AM 84.0 °F 90.2 °F 73.0 °F 69% 30.13 in 10.0 mi West 9.2 mph - N/A   Clear
10:51 AM 86.0 °F 93.8 °F 73.9 °F 67% 30.14 in 10.0 mi West 8.1 mph 17.3 mph N/A   Clear
11:51 AM 86.0 °F 93.8 °F 73.9 °F 67% 30.12 in 10.0 mi West 10.4 mph - N/A   Clear
12:51 PM 87.1 °F 95.4 °F 73.9 °F 65% 30.10 in 10.0 mi West 9.2 mph 17.3 mph N/A   Clear
1:51 PM 86.0 °F 95.1 °F 75.0 °F 70% 30.08 in 10.0 mi WSW 11.5 mph - N/A   Clear
2:51 PM 84.9 °F 93.3 °F 75.0 °F 72% 30.06 in 10.0 mi WSW 9.2 mph - N/A   Clear
3:51 PM 84.0 °F 92.6 °F 75.9 °F 76% 30.04 in 10.0 mi SW 9.2 mph - N/A   Clear
4:51 PM 84.0 °F 93.7 °F 77.0 °F 79% 30.02 in 10.0 mi SW 6.9 mph - 0.00 in Rain Light Rain
5:51 PM 84.0 °F 93.7 °F 77.0 °F 79% 30.01 in 10.0 mi SW 6.9 mph - 0.00 in   Clear
6:51 PM 84.0 °F 93.7 °F 77.0 °F 79% 30.01 in 10.0 mi SW 10.4 mph - N/A   Clear
7:51 PM 82.0 °F 90.2 °F 77.0 °F 85% 30.01 in 10.0 mi WSW 10.4 mph - N/A   Clear
8:51 PM 82.0 °F 89.4 °F 75.9 °F 82% 30.02 in 10.0 mi WSW 9.2 mph - N/A   Clear
9:51 PM 82.0 °F 89.4 °F 75.9 °F 82% 30.03 in 10.0 mi West 8.1 mph - N/A   Clear
10:51 PM 82.0 °F 89.4 °F 75.9 °F 82% 30.02 in 10.0 mi WSW 5.8 mph - N/A   Partly Cloudy
11:51 PM 82.0 °F 88.6 °F 75.0 °F 79% 30.02 in 10.0 mi WSW 8.1 mph - N/A   Clear